Helicity
331 120 160 167 166 195 193 187 174 162 148 139 120 100 94 102 110 150 155 155 122 136 140 132 123 152 170 137 138 166 151 147 191 175 178 194 240 265 235 254 223 210 206 182 240 217 268 411 314 328 361 229 219 218
323 376 148 153 185 214 223 226 216 206 186 164 139 121 97 109 116 137 176 188 190 160 145 159 168 176 156 163 182 191 188 176 202 264 247 281 317 318 283 250 224 203 220 265 245 302 341 245 272 240 235 203 185 212
258 333 318 150 217 266 269 261 255 251 230 191 166 145 115 119 135 170 172 199 214 170 152 178 165 150 187 170 184 224 198 218 217 266 285 317 297 345 278 251 261 240 270 251 252 273 253 198 223 211 180 177 152 151
157 228 273 248 202 265 286 301 286 300 258 224 190 157 149 139 160 189 188 187 224 174 164 154 164 150 157 192 212 245 241 284 296 285 306 350 335 327 323 311 291 287 289 252 267 143 171 260 257 197 117 138 113 103
25 145 224 282 142 248 325 361 351 341 304 265 234 203 174 166 214 262 232 193 201 210 205 189 112 177 225 217 260 275 312 312 298 299 317 313 375 350 311 288 234 229 213 222 201 252 216 198 234 144 166 134 124 134
34 68 133 171 287 117 279 358 400 396 391 338 295 279 263 234 248 282 206 171 199 207 232 229 221 206 250 347 332 291 290 295 316 322 322 337 336 334 316 324 172 174 130 170 199 211 183 142 144 189 148 121 101 99
145 33 94 173 206 215 217 400 462 451 437 442 409 385 352 236 352 260 208 170 239 307 252 220 193 237 224 256 253 240 280 268 284 309 397 392 382 343 380 374 192 126 87 111 140 166 143 187 204 160 137 110 90 100
195 134 40 124 213 156 71 295 362 443 540 534 507 496 408 431 364 307 346 262 250 272 268 266 308 270 229 254 232 207 240 268 297 309 386 348 348 331 255 105 93 117 112 94 108 159 141 137 126 151 145 120 99 109
69 224 97 74 167 156 109 176 384 540 729 706 686 701 672 416 404 325 344 409 388 303 204 276 292 204 225 307 246 218 260 248 280 329 316 318 370 228 208 178 125 97 101 119 153 147 149 147 123 145 150 142 133 128
25 103 239 59 111 121 124 97 356 667 1094 1192 1028 656 477 472 260 317 306 270 251 345 394 371 420 418 325 334 347 291 199 246 269 260 268 359 365 102 108 137 123 91 100 146 121 109 138 138 146 154 167 158 142 127
23 59 166 194 69 99 181 60 530 1180 1353 1043 764 669 463 361 519 434 384 314 326 403 347 487 537 569 481 459 409 234 288 268 267 317 294 351 285 163 133 69 14 64 120 114 106 124 129 133 125 131 131 147 139 112
64 37 107 203 189 33 148 227 942 1090 827 665 621 773 727 580 459 353 430 433 362 302 358 349 366 466 458 418 371 296 347 320 341 347 314 363 188 159 170 115 85 98 88 78 92 90 103 113 118 122 123 126 137 114
102 48 90 177 218 78 -58 653 814 914 913 944 724 606 615 506 487 485 479 597 606 491 374 376 431 410 402 389 406 382 312 377 342 365 397 275 210 176 128 70 93 89 84 87 86 90 92 108 122 141 122 138 116 102
113 79 76 170 192 187 121 532 907 790 682 557 443 458 447 364 412 520 476 422 492 380 404 478 545 414 433 445 353 335 330 310 364 405 349 239 127 113 93 78 99 80 70 67 67 79 87 96 107 128 126 117 104 90
109 98 75 143 173 68 105 548 699 928 559 504 436 244 250 342 403 385 406 471 489 411 559 708 649 466 430 394 350 391 329 356 348 248 211 160 171 149 103 72 74 75 79 72 73 82 91 97 111 133 149 135 103 83
105 114 82 124 147 36 217 692 888 843 618 398 353 408 328 336 392 480 489 467 333 424 597 565 492 403 417 380 356 348 464 393 287 205 169 214 168 110 79 75 75 82 82 72 77 89 95 104 120 142 151 137 103 91
92 113 75 105 121 204 625 884 797 660 480 397 339 389 420 332 300 366 374 395 363 496 533 333 293 292 295 318 445 412 400 284 228 200 195 155 133 87 88 97 91 88 81 80 93 107 113 133 156 168 145 136 105 88
127 86 96 196 209 848 745 625 478 408 398 368 350 310 380 358 288 354 395 405 460 378 397 360 331 362 390 397 353 211 154 221 260 225 200 145 116 101 100 103 93 90 90 98 106 123 136 145 168 166 136 104 87 80
93 68 91 154 527 623 448 553 620 438 371 343 340 423 438 355 337 349 387 389 492 505 423 345 275 328 291 238 194 194 173 167 200 217 161 115 105 113 114 102 99 89 96 106 114 118 127 135 149 139 113 106 107 88
6 155 73 221 481 550 421 348 477 428 264 273 333 365 379 349 319 305 347 525 473 449 372 382 259 172 155 169 167 171 160 202 278 238 165 92 100 120 96 93 81 91 106 108 96 91 117 127 125 102 87 86 100 114
107 387 465 446 524 424 293 281 336 353 399 266 318 366 330 416 345 339 363 387 375 410 374 228 168 236 243 208 179 194 228 209 158 143 111 103 96 92 95 87 95 102 99 96 96 94 92 94 97 87 77 76 72 59
206 333 418 363 274 339 256 272 224 326 400 355 384 310 239 280 332 360 368 385 405 340 252 216 210 217 210 167 160 197 225 212 178 160 164 175 158 108 84 86 104 89 86 85 88 70 73 83 85 78 84 77 52 36
292 298 305 310 191 218 162 292 226 241 230 262 358 290 231 226 274 304 243 252 257 142 186 219 195 222 207 200 242 290 229 194 162 137 143 141 128 116 115 102 93 101 92 77 65 64 71 74 81 79 76 64 36 20
272 271 246 210 238 166 164 221 228 255 260 225 224 245 201 273 236 264 231 233 117 138 230 244 303 334 312 272 229 199 161 145 157 158 140 143 122 93 87 91 93 82 80 90 83 75 67 75 90 85 71 51 35 30
159 164 88 159 188 133 179 179 265 293 253 263 213 189 188 223 235 217 193 124 120 179 173 238 268 289 299 238 184 166 155 161 160 142 103 110 139 144 120 102 82 71 84 89 80 73 72 90 103 94 71 55 45 40
165 163 160 129 182 116 164 159 162 212 260 262 235 212 202 190 155 130 87 44 121 114 183 222 239 248 194 173 190 169 128 141 178 151 110 92 95 129 132 124 106 89 89 93 102 83 81 97 105 98 74 52 33 43
135 125 187 187 162 149 164 236 275 275 196 171 216 200 182 161 124 134 110 114 105 114 112 107 131 142 157 168 172 211 219 203 152 113 122 109 95 109 137 137 118 110 126 123 108 95 101 105 101 91 79 65 55 43
126 104 64 102 185 215 153 178 187 175 237 240 218 136 77 91 118 128 108 112 118 110 114 143 139 153 178 196 203 254 281 237 212 209 205 170 122 101 94 113 133 155 149 129 107 102 102 101 90 79 74 66 54 52
109 115 133 167 153 147 166 167 188 221 259 231 202 101 121 142 138 146 134 119 101 93 120 165 214 220 281 271 239 188 214 203 218 189 145 136 130 86 99 106 116 116 110 94 59 87 96 90 83 84 75 70 59 51
82 100 105 135 126 124 117 114 111 174 181 286 219 172 190 201 200 168 152 159 139 130 162 170 157 147 146 151 159 157 74 85 116 132 141 128 106 124 140 157 156 136 122 116 110 97 69 78 95 97 108 81 71 66
106 104 93 114 96 85 71 107 137 160 185 186 172 155 170 174 164 180 198 208 182 153 134 140 158 129 127 126 123 132 96 51 65 98 128 144 143 139 149 150 146 130 121 118 111 102 101 99 90 81 79 75 62 58
154 117 93 75 84 87 108 120 122 128 147 141 158 152 147 151 159 150 188 204 179 183 166 125 133 122 118 115 118 123 118 123 111 104 107 119 110 102 95 89 89 91 93 92 90 87 81 76 79 76 69 62 60 58
114 125 116 93 92 108 100 106 109 110 127 119 130 135 139 145 129 142 148 135 137 141 144 139 144 139 115 119 115 118 135 153 156 143 125 105 93 83 90 97 104 98 90 85 81 76 66 65 63 60 61 61 59 58
Wind_Speed
73 64 60 57 55 52 49 46 42 39 35 32 29 31 28 25 19 26 29 26 31 37 33 32 30 33 37 36 41 42 49 47 50 57 58 60 56 57 56 56 59 63 70 72 70 77 87 60 68 84 69 67 68 62
74 77 75 66 60 57 56 51 46 43 38 35 31 28 31 25 22 25 33 25 26 35 36 35 35 35 33 30 35 35 43 46 41 49 50 52 56 53 56 67 45 63 51 61 51 57 53 58 59 56 61 66 67 62
73 79 82 73 66 64 62 57 52 47 42 38 34 29 31 26 23 28 30 21 29 34 39 36 34 33 32 33 31 39 39 37 38 40 45 49 52 47 59 56 54 43 36 48 58 50 49 53 53 56 63 64 64 60
76 78 81 89 74 69 65 60 57 52 46 40 35 31 29 27 24 25 33 24 30 36 42 40 33 31 35 33 31 33 35 35 37 38 43 47 53 38 51 50 50 44 37 45 49 43 48 49 54 60 62 62 65 63
81 80 80 85 100 81 70 65 66 60 52 45 38 33 28 23 23 27 31 30 31 38 38 38 32 37 38 32 32 31 31 36 38 43 45 49 45 45 44 46 45 30 37 49 57 49 48 49 55 57 60 66 64 66
90 85 85 84 84 98 73 68 66 67 60 51 43 34 29 21 16 29 45 38 28 29 43 49 38 37 33 30 30 31 35 37 38 43 46 43 37 43 51 53 40 23 22 29 45 44 42 45 49 52 60 62 61 61
94 90 88 84 84 89 80 72 67 65 67 58 47 39 30 26 30 38 40 34 14 22 41 49 48 38 26 29 33 35 40 41 40 44 44 43 41 38 46 53 41 27 18 24 30 40 46 46 53 55 56 58 58 56
96 93 92 86 84 84 92 79 73 65 65 63 52 39 28 23 27 42 36 24 20 29 39 44 45 42 26 36 39 36 40 41 43 44 44 44 41 39 51 31 29 29 32 30 28 29 36 44 47 52 55 59 64 64
93 94 92 89 84 83 87 86 76 67 60 59 50 34 27 45 49 40 20 25 29 35 43 43 44 52 26 36 34 38 40 49 42 44 43 41 44 47 38 33 28 22 30 38 38 39 42 45 47 52 55 61 64 64
90 93 91 91 90 82 78 83 70 62 57 55 47 51 50 43 14 13 33 39 41 47 46 50 41 48 32 39 42 42 42 44 51 46 41 48 54 37 24 19 24 26 25 33 42 45 46 47 48 51 54 57 56 57
91 90 88 89 87 84 77 76 58 65 55 58 60 58 35 22 37 44 44 44 43 53 44 43 44 46 36 43 42 36 39 40 54 50 48 57 61 44 28 16 13 16 24 27 33 38 41 44 46 51 54 55 55 55
86 88 87 83 83 80 71 53 74 62 62 59 41 34 39 48 50 49 54 47 51 56 34 34 33 32 32 32 37 35 44 42 55 39 51 63 51 33 26 24 27 27 27 29 31 35 38 42 44 48 52 54 54 53
83 84 89 81 79 76 59 65 70 49 35 40 49 57 60 57 66 65 67 63 63 39 34 30 30 32 34 34 39 39 45 51 40 51 58 53 40 23 17 23 29 31 32 34 36 36 39 42 44 47 52 52 52 52
82 79 80 80 77 68 49 65 66 56 52 61 64 75 80 67 75 75 69 60 50 40 28 23 32 40 38 39 38 47 46 44 55 62 64 44 22 13 16 22 28 32 32 34 36 38 41 44 48 49 51 52 52 51
79 76 75 76 78 57 51 60 63 57 59 62 59 72 76 67 63 58 48 48 46 29 25 30 39 40 39 43 39 43 48 58 55 59 48 29 16 14 16 20 26 31 33 35 38 39 43 47 50 53 54 52 50 49
73 71 77 74 80 58 53 53 50 55 59 58 61 60 53 59 63 59 55 46 32 27 26 39 46 50 51 44 47 48 55 64 55 40 29 16 15 15 16 21 26 30 33 36 40 42 46 49 52 54 54 52 49 47
67 68 58 69 73 59 53 47 52 60 65 64 69 64 54 54 55 48 39 37 28 33 42 39 48 51 36 52 55 46 55 46 38 26 15 12 12 12 17 20 26 29 33 36 41 43 47 49 52 55 58 52 48 44
68 60 62 61 47 53 48 49 51 58 63 59 71 67 62 51 49 47 39 23 26 38 38 45 37 51 57 61 61 43 33 32 23 14 12 13 13 15 18 21 26 29 33 37 41 45 48 52 56 57 54 49 47 43
63 63 64 44 56 58 54 53 50 57 59 53 50 48 50 50 45 37 35 33 38 34 34 40 49 53 54 44 37 31 24 16 10 12 13 13 13 16 20 24 29 31 35 39 43 47 51 53 55 53 49 47 47 42
64 51 37 44 49 54 55 51 49 53 54 51 46 48 46 44 34 31 25 31 30 34 43 50 48 40 38 32 20 18 9 6 7 12 15 12 15 17 19 24 28 32 36 39 43 46 52 54 51 48 46 44 45 44
41 32 36 46 52 45 49 50 50 52 48 48 40 41 41 37 35 33 31 30 37 48 47 45 42 30 30 27 19 17 6 4 6 14 15 16 13 15 20 23 27 32 37 42 46 48 50 51 50 48 45 43 41 38
46 41 42 43 52 54 52 45 46 44 51 50 46 44 46 45 43 44 36 44 56 50 44 38 31 24 21 19 16 11 3 4 9 15 17 15 13 15 19 23 26 31 35 39 42 47 48 47 47 45 44 43 40 36
39 41 43 44 50 57 55 44 49 46 52 55 51 51 51 48 45 38 52 54 57 41 34 33 29 26 22 19 14 10 4 2 7 11 14 14 15 18 21 21 24 30 37 38 38 41 43 44 45 45 43 41 38 37
35 44 47 49 48 57 52 55 45 46 44 51 53 52 50 46 39 52 63 57 45 36 33 34 30 27 25 19 15 12 8 6 9 14 13 11 14 17 19 22 25 27 30 36 37 39 40 42 42 41 40 40 37 35
42 45 47 55 48 58 60 54 52 52 52 50 51 53 49 45 53 56 62 56 47 42 34 33 33 31 32 26 20 16 11 9 11 12 10 9 15 19 21 23 25 26 27 31 36 37 39 39 39 40 39 36 34 32
44 43 47 53 57 61 62 63 60 55 50 50 51 45 41 43 49 54 51 52 47 39 36 33 31 30 29 23 22 19 16 11 10 12 9 5 9 15 20 23 28 31 24 26 31 36 38 39 39 39 37 34 32 31
42 45 45 44 44 45 53 55 51 54 55 52 45 40 44 51 51 50 46 40 37 35 32 26 24 21 21 19 18 15 10 7 9 8 12 5 9 12 17 23 29 31 26 25 27 30 35 36 36 37 36 34 30 27
45 46 52 46 49 53 55 55 57 55 49 40 32 46 47 45 45 39 37 34 34 28 20 14 14 14 14 13 10 7 5 2 6 11 16 18 17 16 18 23 28 27 26 25 26 27 29 30 33 33 33 32 30 28
42 37 40 49 48 50 52 53 52 46 41 33 41 43 39 34 33 33 30 28 21 13 6 4 8 7 3 4 2 1 7 6 4 13 16 20 24 25 20 22 24 24 25 25 24 24 24 24 24 25 26 28 29 28
41 45 46 45 47 48 45 41 41 40 37 32 32 30 30 29 29 29 24 19 14 10 10 5 2 1 6 4 1 4 4 6 11 17 22 26 28 26 22 22 23 24 24 25 25 26 25 23 26 24 22 24 26 29
38 39 41 43 44 41 37 34 32 30 29 28 28 25 21 20 21 24 24 24 20 15 8 7 9 6 1 3 6 10 15 14 15 20 25 26 25 23 21 20 22 25 25 25 26 26 26 25 25 24 24 24 23 23
40 39 37 37 36 32 31 30 28 27 26 26 26 24 21 21 24 28 33 31 23 20 19 14 15 13 15 16 18 22 25 19 16 18 19 23 24 24 23 23 25 26 24 23 23 24 25 27 27 24 24 24 24 22
31 33 34 34 33 34 31 29 29 29 29 29 29 28 28 28 30 33 34 33 28 27 25 23 23 23 20 22 22 23 23 23 24 24 25 25 26 26 25 24 23 22 21 20 22 24 25 26 25 24 24 25 25 23
Wind_Direction
264 235 232 229 228 231 231 236 238 241 242 250 255 263 272 282 294 309 316 328 327 325 333 336 345 348 353 355 355 2 2 7 8 4 5 6 6 7 6 6 8 9 9 11 12 10 10 15 12 14 8 2 4 3
268 266 242 233 224 227 230 232 234 235 235 243 248 251 262 271 281 302 305 322 334 327 332 336 336 342 351 359 358 3 359 2 10 8 6 7 0 5 4 2 15 8 14 9 15 10 11 8 10 12 10 6 6 5
273 267 263 240 230 229 229 227 227 230 231 233 240 243 252 261 275 292 300 306 318 319 326 329 328 340 352 354 1 353 358 5 7 10 6 5 359 7 0 1 4 11 16 11 9 16 12 7 14 14 12 10 8 8
269 271 265 258 238 232 231 224 222 223 222 223 229 236 243 253 269 287 292 293 307 315 315 321 333 335 345 353 357 358 359 5 7 7 1 1 357 8 360 359 356 4 17 9 5 3 9 20 15 12 10 13 11 11
262 266 269 264 248 239 233 225 222 221 219 219 220 225 231 239 266 288 296 290 296 300 311 318 328 331 341 349 351 356 359 357 358 356 355 354 1 0 2 360 357 14 11 9 8 15 14 11 13 11 12 11 12 12
259 260 263 266 263 244 235 226 223 219 217 215 214 217 219 226 240 286 288 287 288 298 305 307 321 324 338 350 352 351 350 351 352 352 352 356 4 360 357 354 0 9 15 13 11 16 11 7 10 16 12 12 13 12
258 259 260 264 264 258 241 231 222 216 212 210 209 206 212 224 259 275 288 301 275 304 301 305 309 321 337 342 341 340 343 343 344 345 346 350 354 355 352 346 1 9 8 7 9 10 10 18 13 11 12 12 12 14
257 258 258 259 263 265 248 237 227 216 207 206 203 203 210 233 264 275 291 297 301 302 302 303 308 312 329 328 329 337 338 340 341 341 347 348 356 351 346 353 7 15 14 9 7 9 6 7 8 11 12 12 12 13
259 258 258 258 260 262 255 241 231 217 208 198 190 189 241 259 265 268 276 298 301 296 295 297 298 306 326 327 334 335 336 333 341 338 343 351 349 340 347 354 360 2 7 8 14 12 9 8 8 10 11 11 10 10
260 258 259 257 256 260 264 242 230 211 186 177 207 244 253 257 209 255 281 282 284 286 289 291 300 302 314 318 320 329 333 332 330 337 347 340 335 320 334 351 8 14 11 10 5 5 8 7 8 8 8 8 9 8
258 258 258 259 256 257 261 245 207 177 187 230 237 246 244 213 264 270 271 275 282 285 285 286 288 297 307 306 314 323 329 333 327 334 335 337 338 345 354 353 353 355 2 2 3 5 6 6 6 5 5 6 6 7
258 257 258 258 259 256 260 214 183 207 233 232 229 228 239 257 263 265 262 273 274 282 284 290 299 304 309 317 317 323 321 327 322 340 334 333 340 349 8 13 13 13 9 5 5 4 4 3 3 2 1 2 3 4
256 258 255 256 260 256 257 195 197 193 193 231 247 243 246 252 254 255 258 265 269 270 279 286 293 305 312 316 319 320 316 316 334 327 328 331 345 357 15 11 9 9 7 5 5 5 3 2 1 0 359 360 0 1
253 256 257 253 256 260 212 197 194 209 239 247 245 244 244 251 253 255 260 265 272 272 256 266 292 301 308 308 316 314 317 322 319 320 323 337 343 4 10 7 5 1 4 4 4 3 2 0 358 359 358 358 358 359
251 253 255 251 249 242 201 199 203 230 244 247 248 250 248 253 258 259 263 267 271 250 248 275 295 300 303 305 312 316 315 313 318 322 331 341 3 8 5 6 2 2 4 3 3 4 1 358 358 356 356 357 357 356
250 253 250 247 244 224 196 196 232 243 251 252 255 252 257 253 255 257 259 261 253 242 268 290 291 293 292 299 299 300 308 309 320 323 336 1 6 7 7 4 4 4 4 2 2 1 359 357 355 355 355 355 355 356
246 248 250 242 244 204 190 228 239 245 252 256 255 255 252 264 258 256 255 258 231 238 271 288 284 286 302 297 297 303 305 316 322 328 350 359 3 12 9 6 4 2 1 360 358 358 356 356 355 353 352 355 355 356
243 248 246 241 220 202 228 243 243 250 255 261 254 252 255 267 256 254 262 234 241 259 273 284 294 287 291 293 298 307 306 320 332 340 355 359 5 9 5 0 360 359 358 357 356 354 355 353 352 351 353 355 355 357
241 245 250 201 210 221 236 243 248 251 255 262 264 263 263 264 271 260 255 230 274 272 281 284 293 294 293 298 306 308 309 320 329 346 349 1 6 1 357 356 356 356 356 356 355 353 353 354 354 355 355 357 354 358
234 251 208 206 221 235 239 249 250 253 257 257 262 260 265 268 264 254 235 250 262 269 278 280 285 298 303 305 316 325 323 336 351 340 335 350 352 353 349 352 354 355 356 356 356 356 355 355 359 359 359 360 357 358
236 211 214 222 233 245 245 249 251 253 253 261 257 263 269 267 260 254 253 253 263 272 276 280 285 297 306 312 317 321 313 323 323 335 333 337 351 350 350 355 356 355 354 355 355 357 358 358 0 2 3 4 5 5
230 224 231 236 238 243 248 260 253 256 255 253 252 260 264 264 263 258 263 260 268 271 273 281 282 285 293 304 316 321 324 359 356 358 357 5 353 349 350 354 354 353 355 356 357 356 359 2 3 4 5 7 9 10
219 232 235 241 243 243 244 254 255 258 257 248 251 256 261 263 262 261 264 270 270 275 268 276 280 283 280 297 300 297 262 320 337 340 347 350 357 359 359 357 355 354 352 357 359 1 2 4 4 5 7 10 11 10
233 234 236 240 245 240 243 247 257 258 259 253 253 257 257 262 262 264 268 273 277 273 257 259 262 269 278 279 262 253 257 285 315 326 331 345 349 350 353 353 354 355 358 0 2 2 2 3 4 6 8 6 9 10
234 241 244 241 247 239 241 244 250 254 257 257 258 261 260 261 262 268 272 279 272 265 258 259 255 252 258 262 255 246 253 259 286 301 313 337 350 351 349 350 351 353 358 357 357 359 360 2 4 3 4 4 5 6
241 250 247 244 241 242 241 245 248 252 257 260 261 261 267 268 268 275 280 281 277 275 262 248 244 252 253 245 236 235 240 261 289 297 303 313 335 341 338 340 343 345 354 355 356 354 356 359 1 2 1 2 2 2
248 250 251 254 250 250 250 253 253 255 257 261 264 262 262 267 274 278 281 287 292 287 283 261 245 240 240 241 261 259 248 240 286 302 337 328 332 335 340 338 338 346 356 357 356 357 356 358 360 1 1 1 2 3
254 251 247 248 256 254 253 251 249 252 260 265 254 259 266 272 276 285 288 296 299 297 289 277 261 259 255 250 258 231 236 246 351 357 352 343 337 332 332 339 346 352 353 354 353 354 356 358 358 360 1 1 1 3
254 256 257 255 257 256 255 254 255 261 268 261 265 267 270 283 293 295 305 309 308 305 287 250 277 284 276 305 321 139 142 149 288 309 309 314 321 320 324 329 333 337 340 342 344 348 352 356 359 1 3 4 5 4
257 252 257 257 256 256 260 267 266 267 271 272 280 280 282 290 302 308 310 311 310 311 309 315 348 161 154 156 202 333 298 303 319 318 312 315 320 332 336 338 341 343 346 346 347 348 350 354 358 2 4 4 6 4
265 262 259 258 256 260 266 273 276 275 273 275 286 284 287 295 304 313 313 306 304 304 306 306 326 339 61 291 297 305 304 303 306 318 328 333 337 339 341 344 346 346 346 347 348 348 349 349 350 350 351 351 353 357
264 264 265 262 260 264 267 268 271 275 274 275 281 289 294 296 292 296 303 302 301 299 299 302 303 303 316 319 323 325 326 324 315 318 320 325 327 330 332 332 333 334 337 338 340 341 341 342 344 345 345 344 345 348
274 267 267 268 264 263 267 274 277 279 279 277 282 283 289 292 293 301 310 314 306 301 300 302 307 312 313 318 321 325 328 329 330 329 329 330 332 332 332 332 334 335 334 334 334 335 335 337 340 342 342 340 339 340